Other Public Products
Issued by NWS Grand Forks, ND

Home | Current Version | Previous Version | Text Only | Print | Product List | Glossary On
Versions: 1 2 3 4 5 6 7 8 9 10 11 12 13 14 15 16 17 18 19 20 21 22 23 24 25 26 27 28 29 30 31 32 33 34 35 36 37 38 39 40 41 42 43 44 45 46 47 48 49 50
000
FPUS83 KFGF 041331
OPUFGF
PRAIRIE TO PINES WEATHER ROUNDUP
NATIONAL WEATHER SERVICE EASTERN NORTH DAKOTA/GRAND FORKS ND
700 AM CST WED MAR 04 2015

 **SATELLITE DATA USED TO AUGMENT SKY COVER AT AUTOMATED STATIONS**
 *****  WEATHER ACROSS EASTERN NORTH DAKOTA  *****

CITY           SKY/WX    TMP DP  RH WIND       PRES   REMARKS
GRAND FORKS    PTCLDY   -10 -16  74 W8        30.18R WCI -26
GRAND FORKS AF CLEAR    -10 -17  68 NW8       30.17R WCI -26
GRAND CITY NWS   N/A     -9 N/A N/A NW9         N/A  WCI -27
BUXTON         NOT AVBL
DEVILS LAKE    CLEAR    -11 -22  58 NW12      30.14R WCI -31
FARGO          CLEAR     -4 -13  65 NW10      30.18R WCI -21
WAHPETON ARPT  SUNNY     -6 -13  71 W8        30.19R WCI -21
$$

 *****  WEATHER ACROSS CENTRAL AND WESTERN NORTH DAKOTA  *****

CITY           SKY/WX    TMP DP  RH WIND       PRES   REMARKS
JAMESTOWN      CLEAR     -6 -13  71 NW15      30.14R WCI -27
BISMARCK       CLEAR     -4 -13  65 NW14G25   30.23R WCI -24
MINOT          FAIR     -11 -20  64 W18       30.20R WCI -36
MINOT AFB      CLEAR    -12 -20  69 NW17      30.20R WCI -37
GARRISON         N/A    -11 -17  75 NW14      30.19R WCI -33
WILLISTON      CLEAR     -9 -17  68 N13       30.25R WCI -29
DICKINSON      CLEAR     -6 -13  71 NW10      30.13R WCI -24
HETTINGER      PTCLDY    -5 -12  72 NW9       30.15R WCI -22
$$

 *****  OTHER OBSERVATIONS NORTHEAST NORTH DAKOTA  *****

CITY           SKY/WX    TMP DP  RH WIND       PRES   REMARKS
WALHALLA         N/A     -9 -18  64 NW12      30.18R WCI -29
LANGDON        NOT AVBL
CAVALIER       FAIR      -9 -17  70 W10       30.18R WCI -28
GRAFTON        NOT AVBL
CANDO          FAIR     -17 -22  76 NW12      30.17R WCI -38
FORT TOTTEN      N/A    -12 -21  64 NW7       29.95  WCI -28
ROLLA          FAIR     -13 -20  70 NW20      30.11R WCI -39
RUGBY          FAIR     -15 -20  76 NW16      30.19R WCI -39
 ***** THE ABOVE OBSERVATIONS ARE NON NWS ARE NOT QUALITY
        CONTROLLED AND MAY MIS-REPORT RAIN FOR SNOW...
$$

 *****  OTHER OBSERVATIONS SOUTHEAST NORTH DAKOTA *****

CITY           SKY/WX    TMP DP  RH WIND       PRES   REMARKS
COOPERSTOWN    NOT AVBL
VALLEY CITY    FAIR      -6 -11  77 NW13      30.15R WCI -25
OAKES            N/A     -2  -8  78 NW9       30.17R WCI -18
GWINNER        SUNNY      1  -8  66 NW12      30.17R WCI -15
BUFFALO        NOT AVBL
WYNDMERE       NOT AVBL
 ***** THE ABOVE OBSERVATIONS ARE NON NWS ARE NOT QUALITY
       CONTROLLED AND MAY MIS-REPORT RAIN FOR SNOW...
$$

  *****  WEATHER ACROSS NORTHERN MINNESOTA  *****

CITY           SKY/WX    TMP DP  RH WIND       PRES   REMARKS
FLAG ISLAND    CLEAR    -17 -20  83 W8        30.03R WCI -34
WARROAD        FAIR     -15 -22  70 W8        30.06R WCI -32
ROSEAU         CLEAR    -11 -18  70 W8        30.08R WCI -28
HALLOCK        CLEAR    -11 -18  70 NW12      30.15R WCI -31
THF RVR FALLS  CLEAR    -11 -17  77 NW8       30.10R WCI -28
HALSTAD          N/A     -6 -13  73 NW9         N/A  WCI -23
FOSSTON        LGT SNOW -11 -17  77 W6        30.09R WCI -25
BAUDETTE       PTCLDY   -14 -20  74 W9        30.01R WCI -33
WASKISH        PTCLDY   -11 -17  77 W8        30.04R WCI -28
CROOKSTON      CLEAR     -9 -15  77 NW7       30.18R WCI -24
$$
  *****  WEATHER ACROSS CENTRAL AND WEST MINNESOTA  *****

CITY           SKY/WX    TMP DP  RH WIND       PRES   REMARKS
BEMIDJI        CLEAR    -11 -16  78 W10       30.04R WCI -29
PARK RAPIDS    FAIR      -9 -15  75 W9        30.03R WCI -26
WADENA         CLEAR    -11 -15  84 W8        30.07S WCI -28
DETROIT LAKES  CLEAR     -4  -9  77 NW14      30.09S WCI -24
MOORHEAD       CLEAR     -2  -9  71 NW10      30.18R WCI -19
FERGUS FALLS   FAIR      -6 -15  65 W8        30.19R WCI -21
ELBOW LAKE     PTSUNNY   -4  -9  77 W8        30.14R WCI -19
MORRIS MN      PTCLDY    -6 -11  77 W7        30.16R WCI -20
STAPLES        CLEAR    -11 -15  84 W9        30.08R WCI -29
WHEATON        CLEAR     -6  -9  84 W6        30.20R WCI -18
$$
  *****  WEATHER ELSEWHERE ACROSS MINNESOTA  *****

CITY           SKY/WX    TMP DP  RH WIND       PRES   REMARKS
DULUTH         PTCLDY    -8 -14  74 W9        29.97R WCI -25
INTRNTL FALLS  CLEAR    -16 -21  78 W6        29.99R WCI -31
ELY            CLEAR    -11 -17  77 W6        29.94R WCI -25
CLOQUET        MOCLDY    -8 -15  71 W8        30.01R HAZE    WCI -23
BRAINERD       CLEAR    -11 -16  78 W7        30.07R WCI -26
HIBBING        PTCLDY   -11 -17  75 W6        29.98R WCI -25
ALEXANDRIA     LGT SNOW  -5 -10  79 W12       30.11R WCI -23
SAINT CLOUD    CLEAR     -3 -10  72 NW13      30.13R WCI -22
MINNEAPOLIS    PTCLDY    -1  -9  68 W8        30.16R WCI -15
$$

  *****  WEATHER ACROSS SOUTH DAKOTA  *****

CITY           SKY/WX    TMP DP  RH WIND       PRES   REMARKS
SIOUX FALLS    PTCLDY     0  -5  79 SW3       30.16S
BROOKINGS      NOT AVBL
WATERTOWN      CLOUDY    -2  -7  79 W6        30.10S WCI -14
HURON          CLEAR     -1  -7  75 W10       30.18R WCI -17
SISSETON       NOT AVBL
ABERDEEN       PTCLDY     3  -4  72 NW13      30.18R WCI -14
MITCHELL       CLEAR      4  -3  73 W13       30.20R WCI -13
PIERRE         CLEAR      5  -3  69 NW14      30.20R WCI -12
MOBRIDGE       CLEAR      1  -9  62 NW13      30.17R WCI -17
RAPID CITY     PTCLDY     4  -4  69 N12       30.12R WCI -12
$$

  *****  SOME WEATHER IN NEARBY STATES *****

CITY           SKY/WX    TMP DP  RH WIND       PRES   REMARKS
GLASGOW MT     CLEAR     -4 -11  72 NW7       30.24R WCI -18
GREAT FALLS MT CLEAR      4  -3  73 SW13      30.13F WCI -13
CHEYENNE WY    CLOUDY     4  -2  76 NW5       30.00R WCI  -5
SCOTTSBLUFF NE MOCLDY     9   4  80 NW9       30.13S WCI  -4
OMAHA NE       MOCLDY    16   8  71 CALM      30.26S
DES MOINES IA  PTCLDY    12  -1  56 NW8       30.24R WCI   0
DAVENPORT IA   CLOUDY    10   0  63 NW18      30.14R WCI  -8
CHICAGO IL     MOCLDY    17  10  74 NW9       30.02R WCI   6
EAU CLAIRE WI  CLEAR     -2 -10  69 W7        30.10R WCI -15
LA CROSSE WI   CLEAR      5  -5  63 W8        30.15R WCI  -8
$$

  *****  SOME NATIONAL WEATHER *****

CITY           SKY/WX    TMP DP  RH WIND       PRES   REMARKS
LA GUARDIA NY  LGT RAIN  37  34  89 CALM      29.83R FOG
RALEIGH NC     FOG       44  42  93 SW13      30.01S VSB 1/8
ATLANTA GA     FOG       58  57  97 SW7       30.06R VSB 1/8
NEW ORLEANS LA MOCLDY    69  66  90 S3        29.99R
OKLAHOMA CITY  CLOUDY    34  25  69 N20G28    30.04R WCI  23
ALBUQUERQUE NM PTCLDY    31  27  85 E5        29.91R
SALT LAKE CITY PTCLDY    27  22  81 SE6       30.09R WCI  20
LOS ANGELES CA CLEAR     49  42  77 CALM      29.99R
BOISE ID       CLEAR     21  13  71 CALM      30.20R
SEATTLE WA     CLEAR     32  22  66 SE6       30.27R
$$

*** WEATHER ACROSS MANITOBA...SASKATCHEWAN AND ONTARIO ***
                ***ONTARIO***

CITY           SKY/WX    TMP DP  RH WIND       PRES   REMARKS
GERALDTON      PTCLDY    -9 -17  70 W8        29.72R WCI -26
THUNDER BAY    PTCLDY    -6 -18  54 W9G20     29.93R WCI -22
SIOUX LOOKOUT  CRYSTALS -17 -22  76 W8        29.88R WCI -34
TORONTO        CLOUDY    27  21  80 W12       29.83R WCI  16
BIG TROUT LK   FLURRIES -20 -26  76 NW8       29.89R WCI -39
PICKLE LAKE    PTCLDY   -15 -22  70 W9        29.77R WCI -33
DRYDEN         FLURRIES -18 -24  76 W9        29.91R WCI -38
KENORA         CRYSTALS -17 -22  76 NW9       29.96R WCI -36
$$
                *** MANITOBA***

CITY           SKY/WX    TMP DP  RH WIND       PRES   REMARKS
BRANDON        PTCLDY   -18 -26  69 NW14      30.19R WCI -42
DAUPHIN        CLOUDY   -13 -20  70 W15       30.22R WCI -36
ISLAND LAKE    PTCLDY   -20 -26  76 NW6       30.05R WCI -36
PILOT MOUND      N/A    -18 -24  76 NW9         N/A  WCI -38
THE PAS        PTCLDY   -18 -24  76 W9        30.24R WCI -38
THOMPSON       PTCLDY   -24 -31  69 W5        30.12S WCI -38
WINNIPEG       MOCLDY   -11 -18  70 NW17      30.13R WCI -35
LYNN LAKE      CLEAR    -26 -31  75 W6        30.11F WCI -42
CHURCHILL      CRYSTALS -24 -29  76 NW16      30.04S WCI -51
GILLAM         CLEAR    -24 -31  69 W10       30.06R WCI -46
$$
                ***SASKATCHEWAN***

CITY           SKY/WX    TMP DP  RH WIND       PRES   REMARKS
ESTEVAN        CLEAR    -18 -26  69 W14       30.23R WCI -42
KINDERSLEY     CLEAR    -13 -20  70 NE2       30.22
LLOYDMINSTER   CLEAR    -15 -22  70 SW7       30.19F WCI -31
PRINCE ALBERT  CLEAR    -22 -27  76 W6        30.30S WCI -38
REGINA         CLEAR    -22 -27  76 W10       30.27R WCI -44
YORKTON        CLEAR    -18 -27  63 NW14      30.21R WCI -42



USA.gov is the U.S. government's official web portal to all federal, state and local government web resources and services.